Home > Weather > Dublin > Past weeks

Flag for Ireland Past Weather in Dublin, Ireland — Yesterday and Last 2 Weeks

Now
57 °F

Sprinkles. Scattered clouds.


Feels Like: 53 °F
Forecast: 49 / 61 °F
Wind: 18 mph from Northwest

Location: Dublin Airport

Current Time: Jun 29, 2016 at 5:30:24 PM

Latest Report: Jun 29, 2016 at 5:00 PM


Visibility: N/A

Pressure: 29.59 "Hg

Humidity: 77%

Dew Point: 50 °F

Location of DublinLocation

Past Weather in Dublin — Graph

°F

Dublin Temperature Yesterday

Maximum temperature yesterday: 61 °F (at 7:00 PM)
Minimum temperature yesterday: 50 °F (at 2:00 AM)
Average temperature yesterday: 54 °F

High & Low Weather Summary for the Past Weeks

 TemperatureHumidityPressure
High68 °F (Jun 21, 3:30 PM)100% (Jun 16, 4:00 AM)30.18 "Hg (Jun 16, 4:00 AM)
Low45 °F (Jun 18, 4:00 AM)46% (Jun 21, 3:30 PM)29.39 "Hg (Jun 14, 4:00 PM)
Average57 °F79%29.89 "Hg
* Reported Jun 14 4:00 PM — Jun 29 4:30 PM, Dublin, Weather by CustomWeather, © 2016

Note: Actual official high and low records may vary slightly from our data, if they occured in-between our weather recording intervals... More about our weather records

Advertising

Dublin Weather History for the Previous 24 Hours

Scroll right to see more
 ConditionsComfort  
Time TempWeatherWind HumidityBarometerVisibility
4:30 PM
Wed, Jun 29
63 °FScattered clouds.17 mph64%29.56 "HgN/A
4:00 PM63 °FScattered clouds.14 mph68%29.56 "HgN/A
3:30 PM61 °FScattered clouds.17 mph72%29.56 "HgN/A
3:00 PM59 °FScattered clouds.16 mph77%29.56 "HgN/A
2:30 PM57 °FSprinkles. Broken clouds.15 mph88%29.56 "HgN/A
2:00 PM59 °FSprinkles. Broken clouds.17 mph77%29.53 "Hg4 mi
1:30 PM61 °FSprinkles. Broken clouds.17 mph72%29.53 "HgN/A
1:00 PM61 °FPartly sunny.15 mph77%29.50 "HgN/A
12:30 PM61 °FBroken clouds.15 mph72%29.50 "HgN/A
12:00 PM59 °FBroken clouds.17 mph82%29.50 "HgN/A
11:30 AM59 °FPartly sunny.20 mph77%29.47 "HgN/A
11:00 AM57 °FBroken clouds.17 mph88%29.47 "HgN/A
10:30 AM59 °FPartly sunny.16 mph82%29.47 "HgN/A
10:00 AM57 °FPartly sunny.16 mph94%29.47 "HgN/A
9:30 AM55 °FLight rain. Broken clouds.12 mph100%29.45 "Hg6 mi
9:00 AM54 °FLight rain. Broken clouds.6 mph94%29.47 "Hg2 mi
8:30 AM54 °FHeavy rain. Partly sunny.7 mph94%29.47 "Hg2 mi
8:00 AM54 °FRain. Partly sunny.12 mph94%29.50 "Hg2 mi
7:30 AM52 °FRain. Partly sunny.12 mph94%29.53 "Hg4 mi
7:00 AM52 °FRain. Partly sunny.12 mph94%29.56 "Hg4 mi
6:30 AM52 °FRain. Partly sunny.8 mph88%29.59 "Hg2 mi
6:00 AM52 °FDrizzle. Partly sunny.6 mph88%29.59 "HgN/A
5:30 AM52 °FPartly cloudy.5 mph88%29.62 "HgN/A
5:00 AM52 °FPartly cloudy.8 mph88%29.65 "HgN/A
4:30 AM52 °FPartly cloudy.9 mph88%29.65 "HgN/A
4:00 AM52 °FLight rain. Partly cloudy.10 mph88%29.68 "HgN/A
3:30 AM52 °FPartly cloudy.10 mph88%29.68 "HgN/A
3:00 AM52 °FPartly cloudy.9 mph88%29.71 "HgN/A
2:30 AM52 °FLight rain. Partly cloudy.12 mph88%29.71 "HgN/A
2:00 AM52 °FPartly cloudy.8 mph82%29.71 "HgN/A
1:30 AM52 °FPartly cloudy.10 mph82%29.74 "HgN/A
1:00 AM52 °FPartly cloudy.10 mph82%29.74 "HgN/A
12:30 AM52 °FPartly cloudy.10 mph82%29.74 "HgN/A
12:00 AM52 °FPartly cloudy.13 mph77%29.74 "HgN/A
11:30 PM
Tue, Jun 28
52 °FPartly cloudy.13 mph82%29.77 "HgN/A
11:00 PM52 °FPartly cloudy.13 mph77%29.77 "HgN/A
10:30 PM54 °FBroken clouds.10 mph82%29.77 "HgN/A
10:00 PM54 °FBroken clouds.6 mph88%29.77 "HgN/A
9:00 PM54 °FSprinkles. Partly sunny.6 mph88%29.74 "HgN/A
8:30 PM54 °FSprinkles. Partly sunny.7 mph88%29.77 "HgN/A
8:00 PM54 °FSprinkles. Broken clouds.8 mph88%29.74 "Hg6 mi
7:30 PM57 °FScattered showers. Scattered clouds.8 mph77%29.74 "HgN/A
7:00 PM61 °FScattered clouds.10 mph68%29.74 "HgN/A
6:30 PM59 °FPartly sunny.8 mph72%29.74 "HgN/A
6:00 PM57 °FBroken clouds.8 mph77%29.74 "HgN/A
5:30 PM59 °FPartly sunny.10 mph72%29.74 "HgN/A
5:00 PM59 °FPartly sunny.8 mph72%29.74 "HgN/A
Weather by CustomWeather, © 2016

See weather overviewHow to use our weather pages